{"data":{"norad_id":65694,"epoch":"2026-05-24T22:06:18.061632Z","epoch_age_seconds":91908,"freshness":"FRESH","line1":"1 65694U 25212U   26144.92104238 -.03022885  00000+0 -12744+0 0  9994","line2":"2 65694  53.1602 351.6776 0022856 120.4386 239.8875 15.26813288 38929","mean_motion":15.26813288,"eccentricity":0.0022856,"inclination_deg":53.1602,"raan_deg":351.6776,"arg_perigee_deg":120.4386,"mean_anomaly_deg":239.8875,"bstar":-0.12744,"rev_number":3892,"period_min":94.314086163494,"perigee_km":469.65869182347,"apogee_km":501.0330447109,"semimajor_km":6863.4828682672,"source":"CELESTRAK","updated_at":"2026-05-25T13:38:20.897543Z"}}